Port Hope, MI

11:01 AM EST on February 14, 2016 (GMT -0500)
Eastwatch-by-the-Sea | | Change Station
CLOSE
Current Station
Personal Weather Station
Location: Port Hope, MI
Elevation: 565 ft
Nearby Weather Stations

Elev 565 ft 43.95 °N, 82.72 °W | Updated 21 seconds ago

Clear
Clear
14.0 °F
Feels Like 7 °F
N
4.5
Wind Variable Wind from West
Gusts 4.9 mph

Today
High -- | Low -- °F
--% Chance of Precip.
Yesterday
High -- | Low -- °F
Precip. -- in
Pressure 30.42 in
Visibility 10.0 miles
Clouds Clear
Windchill 7 °F
Dew Point -4 °F
Humidity 45%
Rainfall 0.00 in
Snow Depth Not available.
7:31 AM 5:56 PM
Waxing Crescent, 43% visible
METAR KBAX 141554Z AUTO 20006KT 10SM CLR M13/M15 A3042 RMK AO2 T11261149
Pressure 30.42 in
Visibility 10.0 miles
Clouds Clear
Windchill 7 °F
Dew Point -4 °F
Humidity 45%
Rainfall 0.00 in
Snow Depth Not available.
7:31 AM 5:56 PM
Waxing Crescent, 43% visible
METAR KBAX 141554Z AUTO 20006KT 10SM CLR M13/M15 A3042 RMK AO2 T11261149

10-Day Weather Forecast

Almanac

Astronomy

Feb. 14, 2016 Rise Set
Actual Time
Civil Twilight
Nautical Twilight
Astronomical Twilight
Moon
Length of Visible Light
Length of Day
Tomorrow will be .
, % of the Moon is Illuminated

Today's Extremes

State Highs State Lows

Community

WunderPhotos

Upload Photos

1,892,819 photos uploaded!

WunderBlog® & News

Nearby

Air Quality

  Air Quality AQ Index Pollutant
Not available.

Snow Depth

Station Depth Elevation

Earthquake Activity

City Distance Mag. Time & Date
Minimum magnitude displayed is 2.5.

Coastal Water Temperatures

Place Temperature

Stations

Nearby Weather Stations

Station Location Temp. Windchill Dew Point Humidity Wind Precip. Elev Updated Type
                   

Watches & Warnings

There are currently no watches in effect.